Beauvais, France

6:35 PM CET on November 23, 2017 (GMT +0100)
Tille

Weather History for LFOB - March, 2013

Change the Weather History Date:

Wednesday, March 20, 2013

  Actual Average Record
Temperature  
Mean Temperature 40 °F -  
Max Temperature 48 °F 54 °F 66 °F (2014)
Min Temperature 32 °F 38 °F 26 °F (2011)
Degree Days  
Heating Degree Days 24    
Moisture  
Dew Point 37 °F    
Average Humidity 86    
Maximum Humidity 93    
Minimum Humidity 71    
Precipitation  
Precipitation 0.00 in - - ()
Sea Level Pressure  
Sea Level Pressure 29.66 in    
Wind  
Wind Speed 7 mph ()    
Max Wind Speed 17 mph    
Max Gust Speed -    
Visibility 5.7 miles    
Events Rain    
Averages and records for this station are not official NWS values.
T = Trace of Precipitation, MM = Missing Value Source: Averaged Metar Reports

Daily Weather History Graph

Daily Weather History Graph

Search for Another Location

Airport or City:

Trip Planner

Search our weather history database for the weather conditions in past years. The results will help you decide how hot, cold, wet, or windy it might be!

Date:

Astronomy

Mar. 20, 2013 Rise Set
Actual Time 6:54 AM CET 7:04 PM CET
Civil Twilight 6:22 AM CET 7:36 PM CET
Nautical Twilight 5:44 AM CET 8:14 PM CET
Astronomical Twilight 5:06 AM CET 8:53 PM CET
Moon 11:56 AM CET (3/20) 2:53 AM CET (3/20)
Length of Visible Light 13h 14m
Length of Day
12h 10m
First Quarter, 57% of the Moon is Illuminated
Mar 20
First Quarter
Mar 27
Full
Apr 3
Last Quarter
Apr 10
New
Apr 18
First Quarter

Hourly Weather History & Observations

Time (CET) Temp. Windchill Dew Point Humidity Pressure Visibility Wind Dir Wind Speed Gust Speed Precip Events Conditions
12:00 AM 41.0 °F 36.4 °F 39.2 °F 93% 29.47 in - SE 6.9 mph - N/A   Mostly Cloudy
12:30 AM 41.0 °F 37.1 °F 39.2 °F 93% 29.47 in - SSE 5.8 mph - N/A   Light Drizzle
1:00 AM 41.0 °F 36.4 °F 39.2 °F 93% 29.47 in 6.2 mi SSW 6.9 mph - N/A Rain Light Rain
1:30 AM 41.0 °F 38.0 °F 39.2 °F 93% 29.47 in 6.2 mi SSW 4.6 mph - N/A   Mostly Cloudy
2:00 AM 41.0 °F 39.0 °F 39.2 °F 93% 29.47 in 6.2 mi South 3.5 mph - N/A   Overcast
2:30 AM 41.0 °F - 39.2 °F 93% 29.47 in 6.2 mi South 2.3 mph - N/A   Overcast
3:00 AM 41.0 °F 39.0 °F 37.4 °F 87% 29.47 in 6.2 mi South 3.5 mph - N/A   Mostly Cloudy
3:30 AM 41.0 °F - 37.4 °F 87% 29.47 in 6.2 mi Calm Calm - N/A   Mostly Cloudy
4:00 AM 41.0 °F 39.0 °F 39.2 °F 93% 29.47 in 5.0 mi Variable 3.5 mph - N/A Rain Light Rain
4:30 AM 41.0 °F 35.8 °F 39.2 °F 93% 29.47 in 6.2 mi SW 8.1 mph - N/A   Overcast
5:00 AM 41.0 °F 35.2 °F 39.2 °F 93% 29.47 in 6.2 mi SW 9.2 mph - N/A   Mostly Cloudy
5:30 AM 41.0 °F 35.8 °F 37.4 °F 87% 29.47 in 6.2 mi WSW 8.1 mph - N/A   Overcast
6:00 AM 41.0 °F 35.8 °F 37.4 °F 87% 29.47 in 6.2 mi WSW 8.1 mph - N/A   Mostly Cloudy
6:30 AM 41.0 °F 35.8 °F 37.4 °F 87% 29.47 in 6.2 mi WSW 8.1 mph - N/A   Overcast
7:00 AM 41.0 °F 35.2 °F 37.4 °F 87% 29.50 in 6.2 mi WSW 9.2 mph - N/A   Overcast
7:30 AM 41.0 °F 34.3 °F 37.4 °F 87% 29.50 in 6.2 mi SW 11.5 mph - N/A   Overcast
8:00 AM 41.0 °F 34.7 °F 37.4 °F 87% 29.50 in 6.2 mi WSW 10.4 mph - N/A   Overcast
8:30 AM 41.0 °F 34.3 °F 37.4 °F 87% 29.50 in 6.2 mi SW 11.5 mph - N/A   Overcast
9:00 AM 41.0 °F 33.9 °F 37.4 °F 87% 29.53 in 6.2 mi WSW 12.7 mph - N/A   Overcast
9:30 AM 41.0 °F 33.9 °F 37.4 °F 87% 29.53 in 6.2 mi WSW 12.7 mph - N/A Rain Light Rain
10:00 AM 41.0 °F 33.9 °F 37.4 °F 87% 29.56 in 6.2 mi WSW 12.7 mph - N/A Rain Light Rain
10:30 AM 41.0 °F 33.5 °F 39.2 °F 93% 29.56 in 6.2 mi West 13.8 mph - N/A Rain Light Rain
11:00 AM 41.0 °F 34.3 °F 39.2 °F 93% 29.59 in 6.2 mi West 11.5 mph - N/A   Overcast
11:30 AM 42.8 °F 35.1 °F 37.4 °F 81% 29.59 in 6.2 mi West 16.1 mph - N/A   Overcast
12:00 PM 42.8 °F 35.1 °F 39.2 °F 87% 29.62 in 6.2 mi West 16.1 mph - N/A   Overcast
12:30 PM 42.8 °F 36.2 °F 39.2 °F 87% 29.65 in 6.2 mi West 12.7 mph - N/A   Overcast
1:00 PM 42.8 °F 36.2 °F 39.2 °F 87% 29.65 in 6.2 mi West 12.7 mph - N/A Rain Light Rain
1:30 PM 42.8 °F 36.6 °F 37.4 °F 81% 29.68 in 6.2 mi NNW 11.5 mph - N/A   Overcast
2:00 PM 44.6 °F 38.8 °F 39.2 °F 81% 29.71 in 6.2 mi NW 11.5 mph - N/A   Overcast
2:30 PM 44.6 °F 38.1 °F 39.2 °F 81% 29.71 in 6.2 mi NW 13.8 mph - N/A   Overcast
3:00 PM 46.4 °F 40.4 °F 39.2 °F 76% 29.74 in 6.2 mi WNW 13.8 mph - N/A   Overcast
3:30 PM 48.2 °F - 41.0 °F 76% 29.74 in 6.2 mi WNW 16.1 mph - N/A   Mostly Cloudy
4:00 PM 46.4 °F 39.5 °F 37.4 °F 71% 29.77 in 6.2 mi WNW 17.3 mph - N/A   Overcast
4:30 PM 44.6 °F 38.1 °F 35.6 °F 71% 29.77 in 6.2 mi NW 13.8 mph - N/A   Mostly Cloudy
5:00 PM 44.6 °F 38.8 °F 35.6 °F 71% 29.80 in 6.2 mi NW 11.5 mph - N/A   Mostly Cloudy
5:30 PM 44.6 °F 40.2 °F 35.6 °F 71% 29.80 in 6.2 mi NW 8.1 mph - N/A   Mostly Cloudy
6:00 PM 44.6 °F 39.7 °F 35.6 °F 71% 29.83 in 6.2 mi NW 9.2 mph - N/A   Mostly Cloudy
6:30 PM 42.8 °F 38.0 °F 35.6 °F 76% 29.86 in 5.6 mi NW 8.1 mph - N/A   Mostly Cloudy
7:00 PM 41.0 °F 36.4 °F 35.6 °F 81% 29.86 in 5.0 mi WNW 6.9 mph - N/A   Mostly Cloudy
7:30 PM 39.2 °F 33.0 °F 33.8 °F 81% 29.89 in 4.3 mi NW 9.2 mph - N/A   Partly Cloudy
8:00 PM 37.4 °F 32.1 °F 33.8 °F 87% 29.92 in 3.7 mi NW 6.9 mph - N/A   Scattered Clouds
8:30 PM 37.4 °F 32.8 °F 33.8 °F 87% 29.92 in 3.1 mi WNW 5.8 mph - N/A   Mist
9:00 PM 37.4 °F 33.8 °F 35.6 °F 93% 29.92 in - NW 4.6 mph - N/A   Mist
9:30 PM 35.6 °F 32.8 °F 33.8 °F 93% 29.95 in - WNW 3.5 mph - N/A   Mist
10:00 PM 35.6 °F 32.8 °F 33.8 °F 93% 29.95 in - NW 3.5 mph - N/A   Mist
10:30 PM 33.8 °F - 32.0 °F 93% 29.95 in 1.8 mi Calm Calm - N/A   Partly Cloudy
11:00 PM 33.8 °F - 32.0 °F 93% 29.98 in - Calm Calm - N/A   Mist
11:30 PM 32.0 °F - 30.2 °F 93% 29.98 in 1.7 mi Calm Calm - N/A   Scattered Clouds